Klawock, AK

8:53 AM AKDT on August 27, 2016 (GMT -0800)
Klawock

Weather History for PAKW - August, 2013

Change the Weather History Date:

Friday, August 30, 2013

  Actual Average Record
Temperature  
Mean Temperature 62 °F -  
Max Temperature 69 °F 60 °F 69 °F (1997)
Min Temperature 57 °F 47 °F 39 °F (1998)
Degree Days  
Heating Degree Days 4    
Growing Degree Days 12 (Base 50)    
Moisture  
Dew Point 59 °F    
Average Humidity 93    
Maximum Humidity 100    
Minimum Humidity 70    
Precipitation  
Precipitation 0.41 in - - ()
Sea Level Pressure  
Sea Level Pressure 29.89 in    
Wind  
Wind Speed 3 mph (NE)    
Max Wind Speed 7 mph    
Max Gust Speed -    
Visibility 9 miles    
Events Rain    
Averages and records for this station are not official NWS values.
T = Trace of Precipitation, MM = Missing Value Source: NWS Daily Summary

Daily Weather History Graph

Daily Weather History Graph

Search for Another Location

Airport or City:

Trip Planner

Search our weather history database for the weather conditions in past years. The results will help you decide how hot, cold, wet, or windy it might be!

Date:

Astronomy

Aug. 30, 2013 Rise Set
Actual Time 5:54 AM AKDT 7:49 PM AKDT
Civil Twilight 5:15 AM AKDT 8:28 PM AKDT
Nautical Twilight 4:25 AM AKDT 9:17 PM AKDT
Astronomical Twilight 3:27 AM AKDT 10:14 PM AKDT
Moon 12:05 AM AKDT (8/30) 4:42 PM AKDT (8/30)
Length of Visible Light 15h 13m
Length of Day
13h 55m
Waning Crescent, 28% of the Moon is Illuminated
Aug 30
Waning Crescent
Sep 5
New
Sep 12
First Quarter
Sep 19
Full
Sep 26
Last Quarter

Hourly Weather History & Observations

Time (AKDT) Temp. Dew Point Humidity Pressure Visibility Wind Dir Wind Speed Gust Speed Precip Events Conditions
12:53 AM 59.0 °F 57.0 °F 93% 29.74 in 10.0 mi NE 5.8 mph - N/A   Overcast
1:53 AM 60.1 °F 57.9 °F 93% 29.74 in 10.0 mi ENE 3.5 mph - N/A   Overcast
2:53 AM 59.0 °F 57.9 °F 96% 29.75 in 8.0 mi NE 3.5 mph - 0.02 in Rain Light Rain
3:53 AM 59.0 °F 57.9 °F 96% 29.76 in 10.0 mi NNE 6.9 mph - 0.01 in Rain Light Rain
4:07 AM 59.0 °F 57.2 °F 94% 29.76 in 10.0 mi NNE 4.6 mph - 0.00 in Rain Light Rain
4:53 AM 59.0 °F 57.9 °F 96% 29.78 in 5.0 mi NNE 3.5 mph - 0.03 in Rain Light Rain
5:02 AM 59.0 °F 57.2 °F 94% 29.77 in 8.0 mi NE 3.5 mph - 0.01 in Rain Light Rain
5:29 AM 59.0 °F 57.2 °F 94% 29.78 in 10.0 mi NE 5.8 mph - 0.01 in Rain Light Rain
5:53 AM 59.0 °F 57.9 °F 96% 29.78 in 10.0 mi ENE 3.5 mph - 0.03 in Rain Light Rain
6:53 AM 59.0 °F 57.9 °F 96% 29.81 in 10.0 mi Calm Calm - 0.00 in   Overcast
7:16 AM 60.8 °F 59.0 °F 94% 29.81 in 10.0 mi NNE 5.8 mph - N/A   Overcast
7:42 AM 60.8 °F 59.0 °F 94% 29.83 in 10.0 mi ENE 3.5 mph - N/A   Overcast
7:53 AM 61.0 °F 59.0 °F 93% 29.83 in 10.0 mi Calm Calm - N/A   Overcast
8:53 AM 62.1 °F 60.1 °F 93% 29.85 in 10.0 mi Calm Calm - 0.01 in   Overcast
9:40 AM 62.6 °F 60.8 °F 94% 29.87 in 10.0 mi NE 4.6 mph - N/A   Overcast
9:53 AM 62.1 °F 60.1 °F 93% 29.88 in 10.0 mi Calm Calm - N/A   Overcast
10:00 AM 62.6 °F 60.8 °F 94% 29.88 in 10.0 mi ENE 4.6 mph - N/A   Overcast
10:12 AM 62.6 °F 60.8 °F 94% 29.88 in 10.0 mi Variable 3.5 mph - N/A   Overcast
10:53 AM 63.0 °F 60.1 °F 90% 29.90 in 10.0 mi Calm Calm - N/A   Overcast
11:53 AM 64.0 °F 57.9 °F 80% 29.91 in 10.0 mi ENE 4.6 mph - N/A   Overcast
1:53 PM 66.0 °F 55.9 °F 70% 29.93 in 10.0 mi Calm Calm - N/A   Overcast
2:53 PM 64.0 °F 57.0 °F 78% 29.94 in 10.0 mi NNE 3.5 mph - 0.00 in   Overcast
3:53 PM 63.0 °F 57.0 °F 81% 29.95 in 10.0 mi South 3.5 mph - N/A   Overcast
4:16 PM 60.8 °F 59.0 °F 94% 29.96 in 4.0 mi South 5.8 mph - N/A   Overcast
4:53 PM 61.0 °F 59.0 °F 93% 29.96 in 4.0 mi Calm Calm - 0.02 in Rain Light Rain
5:00 PM 60.8 °F 59.0 °F 94% 29.96 in 4.0 mi Calm Calm - 0.00 in Rain Light Rain
5:09 PM 60.8 °F 59.0 °F 94% 29.96 in 7.0 mi North 3.5 mph - 0.00 in Rain Light Rain
5:19 PM 60.8 °F 60.8 °F 100% 29.96 in 10.0 mi Calm Calm - 0.00 in   Overcast
5:53 PM 61.0 °F 60.1 °F 97% 29.96 in 10.0 mi Calm Calm - 0.00 in Rain Light Rain
6:53 PM 61.0 °F 60.1 °F 97% 29.97 in 10.0 mi Calm Calm - 0.04 in Rain Light Rain
7:53 PM 60.1 °F 59.0 °F 96% 29.98 in 10.0 mi Calm Calm - 0.05 in Rain Light Rain
8:53 PM 59.0 °F 57.9 °F 96% 30.00 in 4.0 mi Calm Calm - 0.11 in Rain Rain
9:05 PM 59.0 °F 57.2 °F 94% 30.00 in 6.0 mi Calm Calm - 0.01 in Rain Light Rain
9:53 PM 59.0 °F 57.9 °F 96% 30.01 in 7.0 mi Calm Calm - 0.06 in Rain Light Rain
10:11 PM 59.0 °F 57.2 °F 94% 30.01 in 9.0 mi Calm Calm - 0.01 in Rain Light Rain
10:53 PM 57.9 °F 57.9 °F 100% 30.02 in 10.0 mi Calm Calm - 0.01 in Rain Light Rain
11:53 PM 59.0 °F 57.0 °F 93% 30.03 in 10.0 mi NNE 4.6 mph - 0.02 in Rain Light Rain